Location: Fort Worth, Tx
(32.7431°N, 97.3695°W)
Time: 05:00:58
(UTC-04:00)

Vanguard 3 - Pass Details

Date: 02 March 2024
Orbit: 510 x 3234 km, 33.3° (Epoch: 24 April)

Event Time Altitude Azimuth Distance (km) Brightness Sun altitude
Rises 00:52:19 0° 283° (WNW) 7,146 12.2 -61.8°
Reaches altitude 10° 00:57:05 10° 282° (WNW) 6,173 11.7 -62.3°
Enters shadow 01:06:03 34° 279° (W) 4,363 10.7 -63.0°
